ONEWEB-0147, 47293

Orbit data source: Space-Track

ONEWEB-0147, 47293 is a payload satellite owned by One Web (UK) in LEO that was launched on Fri, 18 Dec 2020 UTC via a SOYUZ-2-1B launch vehicle from the Vostochny Cosmodrome (VOSTO). Payload-class satellites include a variety of spacecraft equipped with specific instruments for various scientific and technological missions. These include communications satellites like Starlink; space stations such as the ISS; scientific satellites like the Hubble; Earth observation satellites from companies like Planet Labs, Umbra, and HawkEye 360; GPS; miniature CubeSats for education and research; and military/defense satellites.

Loading next visibility...
Identifier
47293, 2020-100AM
Orbit
LEO
Country
Flag of UKUK
Related business
Manufacturer
One Web
Mission
Operational Commercial Communications
Bus & Motor
ARROW, Unknown motor
Mass
148 kg wet, ~140 kg dry
Launch date (UTC)
2020-12-18 (5 years ago)
Launch vehicle
SOYUZ-2-1B
Launch site
Vostochny Cosmodrome (VOSTO)
Object type
Payload
Rocket body
Debris
Shape & HBR
Trap Box + 2 Pan, 6.7 m
Radar Cross Section
3.464 m², Large (>1 m²)

Expand to show TLE details & history
Last TLE update: 5 hours ago

TLE from 5 hours ago
0 ONEWEB-0147
1 47293U 20100AM  26095.49348125  .00000369  00000-0  99080-3 0  9993
2 47293  87.9018   5.0761 0001914  78.9846 281.1498 13.12449754255034
Epoch: 2026-04-05T11:50Z
TLE epoch observation values (Epoch: 2026-04-05T11:50:36.780Z)
Latitude
0.00003°
Longitude
-6.37526°
Altitude
1,216.307 km
Speed
7.246 km/s
True Right ascension
00h 20m 18s
True Declination
0° 00' 00"
Sunlit
Object was in daylight at epoch
Visualization orbit readout
Latitude
Unknown
Longitude
Unknown
Altitude
Unknown
Speed
Unknown
Apparent Right ascension
Unknown
Apparent Declination
Unknown
Sunlit
N/A
Visualization observer readout
Local Sidereal Time
22:46:15
Azimuth
Unknown
Elevation
Unknown
Doppler factor
Unknown
Orbital elements
Apogee altitude
1,212.266 km
Perigee altitude
1,209.361 km
Semi-major axis
7,588.951 km
Eccentricity
0.00019
Inclination
87.9018°
RAAN
5.0761°
Arg. of periapsis
78.9846°
True anomaly
281.12828°
Mean anomaly
281.1498°
Eccentric anomaly
281.13904°
Mean motion
3.283 °/min
Orbital period
109.66 mins
BSTAR
0.0009908
Loading maneuver chart data...
Computing Atmospheric mass density...
Loading historical data...
Loading historical data...
Loading historical data...
Loading historical data...
Loading historical data...
Loading historical data...
Loading historical data...

Documentation

Showing up to 5 results
|